Tracking 28799 objects as of 18-Apr-2024
HD Live streaming from Space Station
objects crossing your sky now

STARLINK-4110

Track STARLINK-4110 now!
10-day predictions
STARLINK-4110 is classified as:


NORAD ID: 53166
Int'l Code: 2022-083AL
Perigee: 545.9 km
Apogee: 547.8 km
Inclination: 53.2 °
Period: 95.4 minutes
Semi major axis: 6917 km
RCS: Unknown
Launch date: July 17, 2022
Source: United States (US)
Launch site: AIR FORCE EASTERN TEST RANGE (AFETR)
Your satellite tracking list
Your tracking list is empty




NASA's NSSDC Master Catalog

Two Line Element Set (TLE):
1 53166U 22083AL  24108.01514686  .00000526  00000-0  51127-4 0  9995
2 53166  53.2188  29.1698 0001342  91.6660 268.4486 15.08849251 96942
Source of the keplerian elements: AFSPC